This is the latest recevied weather packets stored in our database for station/object K9MWD. If no packets are shown the sender has not sent any weather packets the latest 10 day(s).
| Time | Temp. | Humidity | Pressure | Rain* | Wind** | Luminosity | Snow |
|---|---|---|---|---|---|---|---|
| 1788127635 | 37.22° C | 35% | 1013.3 hPa | 0 mm | - | 129 W/m² | - |
| 1788127337 | 37.22° C | 35% | 1013.2 hPa | 0 mm | - | 111 W/m² | - |
| 1788127033 | 37.22° C | 34% | 1013.3 hPa | 0 mm | - | 109 W/m² | - |
| 1788126728 | 38.89° C | 32% | 1013.2 hPa | 0 mm | - | 148 W/m² | - |
| 1788126423 | 37.78° C | 33% | 1013.1 hPa | 0 mm | - | 502 W/m² | - |
| 1788126123 | 37.78° C | 34% | 1013.1 hPa | 0 mm | - | 545 W/m² | - |
| 1788125822 | 37.78° C | 33% | 1013.3 hPa | 0 mm | - | 568 W/m² | - |
| 1788125517 | 37.78° C | 33% | 1013.3 hPa | 0 mm | - | 576 W/m² | - |
| 1788125213 | 37.22° C | 34% | 1013.5 hPa | 0 mm | - | 580 W/m² | - |
| 1788124909 | 37.78° C | 34% | 1013.5 hPa | 0 mm | - | 158 W/m² | - |
| 1788124608 | 37.78° C | 33% | 1013.6 hPa | 0 mm | - | 569 W/m² | - |
| 1788124308 | 38.33° C | 33% | 1013.6 hPa | 0 mm | - | 657 W/m² | - |
| 1788124004 | 38.89° C | 33% | 1013.9 hPa | 0 mm | - | 678 W/m² | - |
| 1788123703 | 39.44° C | 31% | 1013.8 hPa | 0 mm | - | 693 W/m² | - |
| 1788123400 | 38.33° C | 33% | 1013.6 hPa | 0 mm | - | 700 W/m² | - |
| 1788123096 | 38.33° C | 33% | 1013.8 hPa | 0 mm | - | 725 W/m² | - |
| 1788122795 | 38.33° C | 33% | 1014.1 hPa | 0 mm | - | 756 W/m² | - |
| 1788122494 | 38.89° C | 32% | 1014.1 hPa | 0 mm | - | 774 W/m² | - |
| 1788122191 | 38.33° C | 32% | 1014 hPa | 0 mm | - | 275 W/m² | - |
| 1788121891 | 38.89° C | 32% | 1014 hPa | 0 mm | - | 768 W/m² | - |
| 1788121591 | 38.33° C | 33% | 1014 hPa | 0 mm | - | 758 W/m² | - |
| 1788121286 | 38.33° C | 33% | 1014.2 hPa | 0 mm | - | 777 W/m² | - |
| 1788120985 | 37.78° C | 34% | 1014.3 hPa | 0 mm | - | 764 W/m² | - |
| 1788120681 | 37.78° C | 33% | 1014.3 hPa | 0 mm | - | 771 W/m² | - |
| 1788120376 | 37.78° C | 34% | 1014.3 hPa | 0 mm | - | 788 W/m² | - |
* Rain latest hour (hover to see other rain measurements)
** Current wind speed in m/s (hover to see current wind gust speed)